Temperature
31 32 32 32 32 32 32 32 31 31 31 30 30 29 28 28 27 27 26 25 24 23 23 22 22 21 21 21 20 20 20 19 19 18 18 18 18 18 18 17 17 17 17 17
30 31 32 32 32 32 32 32 32 32 31 32 31 29 28 27 27 26 26 25 24 23 22 22 21 21 20 20 20 20 19 19 18 18 18 18 18 17 17 17 17 17 17 17
29 30 31 30 31 31 31 32 32 31 31 31 30 29 28 27 26 26 25 24 23 22 22 21 21 20 20 20 20 19 19 18 18 18 18 17 17 17 17 17 16 16 16 16
28 28 27 30 32 32 31 31 32 31 31 30 29 28 27 26 25 24 24 23 23 22 21 21 20 20 20 19 19 19 19 18 18 17 17 17 17 17 17 16 16 16 16 16
27 27 28 30 31 31 30 29 30 30 30 30 29 28 27 25 24 24 23 23 22 22 21 21 20 19 19 19 19 18 18 18 17 17 17 17 17 16 16 16 16 16 15 15
27 26 26 27 29 30 30 28 29 28 28 28 28 27 26 25 24 23 23 22 22 21 21 20 19 19 18 18 18 18 17 17 17 17 17 17 16 16 16 16 15 15 15 15
26 26 26 28 28 29 27 25 26 27 27 27 27 26 25 24 23 22 22 22 21 20 20 19 19 18 18 18 17 17 17 17 17 16 16 16 16 16 16 15 15 15 15 15
25 25 25 27 27 26 24 25 25 25 25 25 25 24 24 23 22 22 21 21 21 20 19 19 18 18 17 17 17 17 17 16 16 16 16 16 16 15 15 15 15 15 15 15
25 24 24 25 24 24 24 24 24 24 24 24 24 24 23 22 22 21 20 20 20 19 19 18 17 17 17 16 16 16 16 16 16 16 16 15 15 15 15 15 15 15 15 15
24 24 24 24 23 23 23 23 23 23 23 23 23 22 22 21 21 20 20 19 19 18 18 18 17 17 16 16 16 16 16 16 16 15 15 15 15 15 15 15 15 15 15 14
23 24 23 23 23 22 22 22 22 22 22 22 21 21 21 20 20 20 19 19 18 18 17 17 16 16 16 16 15 15 15 15 15 15 15 15 15 15 14 15 15 14 14 14
22 22 22 22 22 21 21 21 21 21 21 21 20 20 20 19 19 19 18 18 17 17 16 16 16 15 15 15 15 15 15 14 14 14 14 14 14 14 14 14 14 14 14 14
22 21 21 21 21 21 21 20 20 20 20 20 19 19 19 19 18 18 18 17 17 16 16 16 15 15 15 15 14 14 14 14 14 14 14 14 14 14 14 14 14 14 14 13
20 20 20 20 20 20 20 20 20 20 19 19 19 18 18 18 18 17 17 16 16 16 15 15 15 15 14 14 14 14 14 14 14 13 13 14 14 14 14 14 14 13 13 13
19 19 19 19 19 19 19 19 19 19 19 18 18 18 18 17 17 16 16 16 15 15 15 15 14 14 14 14 13 13 13 13 13 13 13 13 13 13 13 13 13 13 13 13
19 19 19 19 19 19 19 18 18 18 18 18 17 17 17 17 16 16 15 15 15 15 14 14 14 14 13 13 13 13 13 13 13 13 13 13 13 13 13 13 13 12 12 12
18 18 18 18 18 18 18 18 18 18 17 17 17 17 16 16 16 15 15 15 14 14 14 13 13 13 13 13 13 12 12 13 13 12 13 13 13 13 13 13 12 12 12 12
18 17 17 17 17 17 17 17 17 16 16 16 16 16 15 15 15 15 14 14 14 13 13 13 13 13 12 12 12 12 12 12 12 12 12 12 12 12 12 12 12 12 11 11
17 17 17 17 16 16 16 16 16 16 15 15 15 15 14 14 14 14 13 13 13 13 13 12 12 12 12 12 12 12 12 12 12 12 12 12 12 12 12 12 12 11 11 11
16 16 16 16 16 15 15 15 15 15 15 14 14 14 13 13 13 13 13 13 13 12 12 12 12 12 12 12 12 12 12 12 12 12 12 12 11 11 11 11 11 11 11 11
16 16 15 15 15 15 15 15 14 14 14 14 13 13 13 13 13 13 13 12 12 12 12 12 11 11 11 11 11 11 11 11 11 11 11 11 11 11 11 11 11 10 10 10
15 15 15 14 14 14 14 14 14 14 13 13 13 13 13 12 12 12 12 12 12 12 12 11 11 11 11 11 11 11 11 11 11 11 11 11 11 11 11 10 10 10 10 10
14 14 14 14 14 14 14 13 13 13 13 13 13 12 12 12 12 12 12 12 11 11 11 11 11 11 11 11 11 11 11 11 11 11 11 10 11 10 10 10 10 10 9 9
13 13 13 13 13 13 13 13 13 13 13 13 13 12 12 12 12 12 12 11 11 11 11 11 11 11 11 10 10 10 10 10 10 10 10 10 10 10 10 10 9 9 9 9
13 13 13 13 13 13 13 13 13 13 13 13 13 13 12 12 12 11 11 11 11 11 11 11 11 11 10 10 10 10 10 10 10 10 10 10 10 10 9 9 9 9 8 8
13 13 13 12 12 13 13 13 13 13 13 13 13 12 12 12 12 11 11 11 11 11 11 10 10 10 10 10 10 10 10 10 10 10 10 9 9 9 9 9 8 8 8 8
13 13 13 13 13 13 13 13 13 13 12 12 12 12 12 12 11 11 11 11 11 10 10 10 10 10 10 10 10 10 9 9 9 9 9 9 9 9 9 8 8 8 8 7
Wind_Speed
15 16 15 13 12 12 12 11 11 9 5 2 4 5 4 4 4 5 5 5 5 5 5 4 3 3 2 2 2 2 2 2 2 2 1 1 1 1 1 1 2 1 2 2
15 17 16 16 13 12 12 12 12 9 5 1 3 5 5 4 3 5 5 5 4 4 4 3 2 1 1 1 2 2 2 2 2 1 1 1 1 1 1 1 2 1 1 2
14 15 16 15 12 11 10 10 10 8 5 1 3 3 4 3 1 2 4 4 3 2 3 2 2 1 1 0 1 2 2 1 1 1 1 1 2 1 1 2 1 1 2 2
13 14 17 11 9 9 9 9 9 7 3 1 1 3 5 5 4 3 3 3 2 2 2 1 1 1 0 1 1 1 1 1 1 1 1 1 1 1 2 2 2 2 2 3
11 14 13 10 8 8 7 6 6 6 5 2 2 1 4 4 4 4 3 3 2 1 1 1 2 1 1 1 1 1 1 1 1 1 2 2 2 2 2 2 2 2 2 2
12 14 13 7 8 9 6 4 5 7 6 3 2 2 1 4 4 3 3 2 2 1 1 2 2 2 1 1 1 1 1 1 1 1 1 2 2 2 2 2 2 3 1 1
14 14 8 6 8 7 5 3 7 7 7 5 3 2 4 5 3 2 2 2 2 2 2 3 3 2 2 2 2 2 3 2 2 2 1 1 1 1 2 2 3 3 2 2
10 12 8 8 6 3 3 6 7 7 6 6 5 4 4 4 4 2 2 2 2 3 3 3 3 2 2 2 2 2 2 2 1 2 2 1 1 2 2 3 3 3 3 3
4 4 3 7 6 5 4 4 6 7 7 4 3 2 2 3 2 2 1 1 1 2 2 2 2 2 1 2 2 2 1 1 1 1 1 1 2 2 2 2 3 3 2 2
4 3 2 5 6 7 7 5 6 6 7 6 4 3 2 1 1 1 1 0 0 0 0 1 1 1 1 1 2 2 1 1 2 2 2 1 1 2 2 3 3 3 3 2
8 7 6 4 5 6 7 6 6 6 6 7 5 4 3 2 1 1 0 0 1 0 0 0 1 1 1 1 1 2 2 2 3 3 2 1 1 2 2 2 2 2 3 3
7 5 6 5 6 8 8 8 7 6 6 5 5 5 4 3 1 1 1 1 0 0 1 1 0 0 1 1 1 2 3 3 3 3 2 2 1 1 2 1 1 1 2 2
5 6 5 5 6 7 7 7 7 6 5 4 4 5 4 2 2 1 1 1 1 1 1 1 1 1 1 2 2 3 3 3 4 4 3 3 3 2 2 1 2 2 3 3
5 5 6 6 6 6 8 8 7 7 5 4 3 4 3 2 2 1 1 2 2 1 1 2 1 1 1 2 2 3 4 4 3 3 3 4 3 3 3 3 2 1 2 4
5 5 6 6 6 6 7 7 6 5 4 4 3 3 3 2 2 2 1 2 2 2 2 2 1 2 2 2 2 3 4 3 2 3 4 4 3 4 3 3 2 1 1 2
5 6 6 6 6 6 7 7 6 5 4 5 4 4 3 2 2 1 1 2 2 2 2 1 1 2 1 2 2 2 2 2 3 4 4 3 3 3 3 2 2 1 1 2
6 6 6 6 6 6 6 6 6 6 5 5 6 5 3 2 1 1 1 2 1 1 1 0 1 1 1 1 2 3 3 3 3 4 4 3 3 3 3 3 2 2 2 1
6 7 6 5 5 5 5 6 6 6 5 6 6 5 4 2 2 1 2 2 1 1 1 1 1 1 1 1 2 3 3 3 3 3 3 2 3 3 3 3 3 2 2 1
5 5 5 5 4 4 4 4 5 5 5 5 4 4 4 3 2 2 2 1 1 1 1 1 1 2 2 2 3 3 3 3 3 3 3 3 3 3 4 3 3 2 2 2
4 4 4 3 4 4 4 4 4 4 4 3 3 3 3 2 2 2 2 1 1 2 1 1 1 2 2 3 4 3 3 3 3 3 3 3 3 3 4 3 3 3 2 2
4 3 3 4 4 3 4 4 5 4 3 4 3 3 2 2 2 2 1 2 1 1 2 1 1 2 3 4 4 4 3 3 3 3 3 3 3 3 3 3 3 2 2 2
3 4 4 4 4 3 3 3 4 4 3 3 3 3 2 2 2 1 1 1 1 1 1 1 2 3 4 5 3 2 2 3 3 3 3 3 3 2 3 3 3 2 2 2
3 3 4 4 4 3 3 3 3 3 3 2 2 2 2 2 2 2 1 1 1 1 1 1 2 4 5 3 3 3 3 3 3 3 2 3 2 2 2 2 2 2 3 3
3 3 4 4 4 3 3 3 3 2 2 2 1 1 1 1 0 0 1 1 2 1 1 1 1 3 4 3 3 3 3 3 3 3 3 2 2 2 2 2 2 2 2 2
3 3 4 3 4 3 3 3 3 2 2 1 1 1 1 1 1 1 1 1 2 1 1 1 2 3 3 3 3 3 2 3 3 3 3 3 2 2 2 2 2 2 2 2
2 2 2 3 3 4 3 3 2 2 2 2 2 1 1 1 1 0 0 0 1 1 1 1 1 2 2 2 2 3 2 2 2 2 2 2 2 2 2 2 3 2 2 2
4 3 3 3 3 3 3 3 3 2 2 2 2 2 2 1 1 1 1 1 0 1 1 1 1 1 1 1 1 2 3 3 3 3 2 2 2 2 2 2 3 2 2 2
Wind_Direction
272 274 275 276 265 262 263 269 276 282 279 226 145 143 149 149 134 127 125 115 114 118 116 118 125 127 124 135 136 147 160 173 161 180 197 211 214 207 194 250 272 289 291 298
276 272 272 272 271 267 265 266 267 274 285 342 115 116 119 113 124 138 126 114 107 114 112 115 112 111 138 140 148 148 164 168 158 181 189 215 237 205 203 257 275 285 286 298
278 279 277 268 267 263 266 269 274 275 294 355 63 91 99 101 97 138 134 124 109 114 124 131 134 121 92 79 160 171 173 175 166 178 209 237 252 242 240 258 264 264 279 279
274 278 269 268 283 279 274 279 279 279 283 284 237 145 134 141 157 178 138 128 112 114 132 156 146 135 144 226 169 171 182 177 203 209 227 237 232 246 247 255 261 266 268 275
271 270 264 266 281 289 283 288 310 309 322 345 348 125 116 108 115 118 109 108 96 83 119 88 70 57 325 269 229 187 219 222 235 242 247 250 236 243 257 261 262 272 280 283
267 272 271 293 313 316 287 261 348 344 342 352 321 262 141 98 96 105 98 97 106 130 82 81 71 62 6 316 324 338 311 294 292 285 263 266 264 271 276 269 268 271 266 274
260 267 269 305 315 314 280 330 358 356 358 351 359 1 96 103 102 128 138 131 123 109 86 71 72 68 28 10 4 4 5 1 348 323 284 258 266 287 288 283 271 263 259 259
255 261 265 338 324 355 17 3 350 356 353 359 12 46 90 105 108 118 102 101 103 101 95 85 77 66 23 7 358 352 355 350 333 323 295 301 313 279 276 276 272 256 251 255
272 274 349 356 12 13 357 341 338 334 337 338 323 1 51 96 116 131 125 115 117 104 96 95 83 65 8 357 350 345 350 325 304 305 314 317 297 291 285 269 273 283 285 276
278 248 278 336 352 343 332 328 329 330 331 325 332 346 0 17 92 142 156 163 185 153 100 67 60 44 22 358 341 327 316 305 279 261 245 242 274 284 287 299 302 313 318 321
272 278 289 296 313 315 316 323 326 331 333 333 340 331 333 334 357 333 305 221 250 210 190 286 47 14 8 354 329 304 290 282 282 274 266 272 286 308 283 302 287 280 313 323
276 303 294 297 313 311 317 323 324 322 323 328 324 316 315 312 334 342 352 344 297 227 241 238 170 27 345 323 298 287 281 278 281 280 267 251 250 306 356 276 258 192 207 240
305 315 318 321 310 312 315 313 310 305 302 308 311 308 305 307 305 321 340 344 295 271 251 230 223 246 279 282 269 266 268 273 276 274 265 254 253 253 271 281 265 259 246 233
324 322 311 310 312 321 313 310 309 308 309 313 312 310 306 303 302 296 305 298 286 270 271 267 257 270 288 284 266 268 271 268 272 278 278 273 268 265 264 265 259 262 252 236
309 301 297 305 308 309 304 303 303 307 315 315 311 303 293 292 283 280 286 286 285 274 274 285 298 301 304 294 282 277 285 291 296 291 285 283 282 279 279 277 269 262 280 269
293 292 293 291 293 299 304 307 310 313 312 306 308 304 288 271 270 282 286 285 277 282 312 322 298 300 298 305 304 291 291 294 289 289 285 289 292 289 286 285 290 292 301 318
285 285 287 290 295 298 298 303 306 308 312 313 314 312 300 278 271 274 290 300 300 306 326 318 331 338 335 318 305 293 289 284 277 283 292 302 305 303 301 297 296 305 307 312
278 281 287 292 294 299 303 310 319 325 326 327 324 320 313 306 302 307 289 282 299 346 9 40 23 340 316 311 294 278 273 278 284 295 305 306 302 301 296 296 301 298 289 278
282 285 289 301 307 306 309 313 316 315 317 317 317 316 316 320 312 297 292 276 256 267 331 355 307 276 296 309 300 277 271 265 274 282 287 280 281 293 301 299 297 296 312 308
281 280 286 304 305 300 298 297 297 301 309 315 319 314 313 312 307 297 301 300 303 306 293 312 286 285 292 305 299 283 282 281 279 280 289 292 301 305 304 308 315 322 329 331
304 298 298 297 301 308 308 310 312 308 310 311 308 303 296 291 290 284 269 276 315 329 301 271 283 300 305 308 287 285 282 282 287 289 295 300 304 305 311 324 334 345 350 353
324 334 327 318 315 315 314 314 317 311 304 306 302 299 292 290 286 289 292 266 277 321 285 295 317 334 324 307 292 291 290 294 292 288 291 297 306 317 320 328 333 343 353 352
329 328 330 329 320 312 314 317 314 307 306 311 305 298 300 309 298 290 309 347 344 323 291 339 6 357 330 306 303 306 313 307 303 303 304 302 309 327 339 339 343 347 348 351
326 330 328 327 316 306 300 299 303 305 308 295 289 290 281 277 304 342 5 77 76 97 331 38 37 332 304 298 309 310 315 318 318 323 320 317 326 342 351 344 339 348 354 358
316 315 310 307 294 285 285 282 277 274 281 289 283 323 329 2 27 26 19 34 73 99 299 251 235 256 274 304 311 316 330 338 333 331 331 340 347 343 340 342 342 349 350 355
275 282 299 294 293 293 294 294 293 298 312 325 331 358 26 42 65 103 103 68 60 177 265 302 295 255 275 291 315 326 330 333 327 314 324 336 335 337 349 354 2 358 354 355
254 254 253 267 280 289 302 307 316 336 343 346 341 343 2 18 26 11 357 343 318 282 284 285 288 292 306 322 331 332 332 326 325 326 336 340 344 354 356 352 349 353 350 353
Height
1469 1463 1460 1460 1460 1459 1463 1465 1471 1468 1469 1467 1467 1470 1475 1478 1481 1483 1486 1488 1491 1492 1494 1496 1497 1499 1500 1501 1502 1503 1503 1504 1504 1504 1504 1504 1503 1503 1503 1502 1502 1501 1501 1500
1473 1463 1460 1461 1458 1458 1459 1459 1461 1462 1466 1461 1465 1469 1474 1477 1480 1483 1486 1489 1491 1492 1493 1495 1496 1497 1498 1499 1500 1501 1501 1502 1502 1502 1502 1502 1501 1501 1500 1500 1499 1498 1498 1497
1480 1466 1464 1470 1461 1459 1459 1456 1458 1465 1465 1463 1468 1471 1474 1478 1482 1484 1486 1489 1490 1492 1493 1494 1495 1496 1496 1497 1499 1499 1500 1500 1500 1500 1500 1500 1499 1499 1498 1497 1496 1495 1495 1494
1480 1478 1489 1468 1453 1453 1456 1457 1456 1458 1460 1463 1467 1470 1474 1478 1483 1484 1486 1489 1490 1492 1493 1494 1494 1495 1495 1496 1496 1497 1498 1498 1498 1498 1497 1497 1497 1496 1496 1495 1494 1493 1493 1492
1483 1483 1478 1464 1457 1456 1459 1462 1459 1460 1461 1464 1467 1471 1475 1478 1481 1484 1486 1488 1489 1491 1492 1493 1493 1493 1493 1494 1494 1495 1494 1495 1495 1495 1495 1495 1494 1494 1493 1493 1492 1491 1490 1489
1481 1486 1487 1474 1460 1458 1460 1469 1465 1466 1466 1467 1468 1472 1476 1478 1480 1483 1485 1487 1489 1490 1491 1491 1491 1491 1492 1492 1492 1492 1492 1491 1492 1492 1492 1492 1492 1491 1491 1490 1489 1488 1487 1486
1482 1484 1477 1468 1463 1462 1475 1479 1471 1470 1470 1470 1471 1474 1478 1479 1481 1484 1486 1487 1488 1489 1489 1490 1490 1490 1490 1489 1489 1489 1489 1489 1490 1490 1489 1489 1489 1489 1488 1487 1486 1485 1484 1482
1481 1486 1485 1471 1467 1473 1478 1476 1475 1474 1474 1474 1475 1476 1477 1479 1481 1483 1485 1486 1487 1487 1487 1488 1488 1488 1488 1488 1488 1487 1487 1487 1488 1487 1487 1487 1486 1486 1486 1485 1484 1482 1481 1480
1478 1481 1477 1475 1475 1477 1477 1477 1477 1477 1477 1476 1477 1477 1478 1479 1481 1483 1484 1485 1486 1486 1486 1487 1487 1487 1487 1487 1486 1486 1485 1485 1485 1485 1485 1484 1484 1484 1483 1482 1481 1480 1479 1478
1476 1475 1476 1477 1477 1477 1477 1477 1477 1477 1477 1477 1477 1478 1479 1480 1481 1482 1483 1484 1484 1484 1485 1485 1485 1485 1485 1485 1485 1484 1483 1483 1483 1482 1482 1482 1482 1481 1481 1480 1479 1478 1477 1476
1477 1476 1477 1477 1478 1479 1477 1476 1476 1477 1477 1477 1477 1478 1478 1479 1479 1480 1481 1482 1482 1483 1483 1483 1483 1483 1483 1483 1482 1482 1481 1481 1480 1480 1480 1480 1479 1479 1478 1477 1476 1476 1474 1474
1478 1477 1477 1477 1478 1478 1478 1477 1476 1476 1476 1476 1477 1477 1477 1478 1478 1479 1479 1480 1481 1481 1481 1481 1481 1481 1481 1480 1480 1479 1478 1478 1478 1478 1478 1477 1476 1475 1475 1474 1473 1472 1471 1471
1478 1477 1477 1477 1478 1478 1478 1477 1476 1475 1475 1475 1476 1476 1476 1476 1476 1477 1477 1478 1478 1479 1479 1479 1478 1478 1478 1478 1477 1476 1476 1476 1475 1475 1475 1474 1473 1473 1472 1471 1470 1469 1469 1468
1478 1478 1477 1478 1477 1477 1477 1476 1475 1474 1474 1474 1474 1475 1475 1475 1475 1475 1476 1476 1476 1476 1476 1476 1476 1475 1475 1475 1474 1473 1473 1473 1473 1472 1472 1471 1471 1470 1469 1468 1467 1466 1465 1465
1477 1478 1478 1477 1477 1477 1476 1475 1474 1473 1473 1473 1474 1474 1474 1474 1474 1474 1474 1474 1474 1474 1473 1473 1473 1472 1472 1472 1471 1471 1471 1470 1469 1469 1469 1469 1468 1468 1467 1466 1465 1463 1462 1462
1476 1477 1476 1476 1476 1475 1475 1474 1473 1472 1472 1472 1472 1472 1472 1472 1472 1472 1472 1472 1472 1471 1471 1470 1470 1470 1469 1469 1469 1468 1468 1467 1466 1466 1466 1466 1465 1465 1464 1463 1462 1461 1460 1459
1475 1475 1475 1475 1474 1474 1474 1474 1473 1472 1472 1472 1471 1470 1470 1470 1470 1470 1470 1470 1470 1469 1468 1468 1467 1467 1466 1466 1466 1465 1465 1465 1465 1464 1463 1463 1462 1462 1462 1461 1460 1459 1458 1457
1474 1474 1474 1474 1473 1472 1472 1472 1471 1471 1471 1470 1469 1469 1468 1467 1467 1468 1468 1468 1467 1467 1466 1465 1465 1464 1464 1463 1463 1463 1463 1462 1462 1461 1461 1460 1460 1460 1459 1458 1457 1456 1455 1454
1472 1472 1472 1472 1472 1472 1471 1471 1470 1470 1469 1469 1468 1467 1466 1465 1465 1465 1465 1465 1465 1464 1463 1463 1462 1462 1461 1461 1461 1460 1460 1460 1460 1459 1459 1458 1458 1457 1457 1456 1454 1453 1453 1452
1471 1471 1470 1470 1470 1470 1470 1469 1469 1468 1468 1467 1466 1465 1464 1463 1463 1463 1463 1463 1463 1462 1461 1461 1460 1460 1459 1459 1459 1459 1458 1458 1457 1457 1457 1456 1455 1454 1454 1453 1452 1451 1451 1450
1469 1469 1468 1469 1469 1468 1468 1468 1467 1466 1465 1465 1464 1463 1462 1461 1461 1461 1460 1460 1460 1460 1459 1459 1458 1458 1458 1457 1457 1457 1457 1456 1456 1455 1455 1454 1453 1452 1452 1451 1450 1449 1449 1448
1468 1467 1467 1467 1467 1467 1466 1466 1465 1464 1464 1463 1462 1461 1460 1460 1459 1459 1459 1459 1458 1458 1457 1457 1457 1456 1456 1455 1455 1455 1455 1454 1454 1453 1453 1452 1451 1450 1450 1449 1448 1447 1447 1446
1467 1467 1466 1466 1466 1465 1465 1464 1464 1463 1462 1461 1460 1460 1459 1459 1458 1458 1458 1457 1457 1456 1456 1456 1455 1455 1454 1454 1454 1453 1452 1452 1452 1451 1451 1450 1449 1448 1447 1447 1446 1445 1444 1443
1467 1466 1466 1465 1464 1464 1464 1463 1463 1462 1461 1460 1460 1459 1458 1458 1457 1457 1457 1456 1455 1455 1455 1454 1454 1453 1453 1453 1452 1452 1451 1450 1450 1449 1448 1447 1447 1446 1445 1444 1444 1443 1442 1441
1466 1465 1464 1464 1463 1463 1462 1462 1461 1461 1460 1459 1459 1458 1458 1457 1456 1456 1456 1455 1454 1454 1453 1453 1452 1452 1452 1451 1451 1450 1449 1448 1448 1447 1446 1445 1445 1444 1443 1442 1441 1441 1440 1439
1465 1464 1463 1463 1462 1462 1461 1461 1460 1460 1459 1458 1458 1458 1457 1456 1456 1455 1455 1454 1454 1453 1453 1452 1452 1451 1450 1450 1449 1449 1448 1447 1446 1446 1445 1443 1443 1442 1441 1440 1439 1438 1437 1436
1463 1463 1462 1462 1461 1461 1460 1460 1459 1459 1458 1458 1457 1457 1457 1456 1455 1455 1454 1454 1453 1453 1452 1452 1451 1450 1450 1449 1448 1447 1446 1446 1445 1444 1443 1442 1441 1440 1439 1438 1437 1436 1435 1433